FW8607 Weather Reports


time (UTC)temp
F
wind
direction
speed
knots
gust
knots
rain 1hr
in
rain 24hr
in
rain mn
in
humidity
%
barometer
mb
20260506123113 50 135 1.7 5.2 0.00 0.16 0.00 89 1016.5
20260506120113 50 135 1.7 6.1 0.00 0.16 0.00 89 1016.3
20260506113114 50 135 2.6 5.2 0.00 0.16 0.00 89 1016.5
20260506110114 50 135 2.6 4.3 0.00 0.16 0.00 89 1016.3
20260506103112 51 113 1.7 3.5 0.00 0.20 0.00 88 1016.3
20260506100132 51 293 0.9 3.5 0.00 0.20 0.00 87 1016.1
20260506093113 52 293 1.7 3.5 0.00 0.22 0.00 87 1016.1
20260506090112 52 293 1.7 3.5 0.00 0.22 0.00 87 1016.4
20260506083112 52 0.0 2.6 0.00 0.31 0.00 85 1016.8
20260506080112 53 0.0 0.0 0.00 0.31 0.00 84 1017.0
20260506073112 53 0.0 1.7 0.00 0.31 0.00 84 1017.2
20260506070113 53 293 0.9 2.6 0.00 0.31 0.00 84 1017.1
20260506060112 54 0.0 0.0 0.00 0.31 0.00 82 1016.8
20260506050112 55 0.0 0.0 0.00 0.31 0.00 81 1016.6
20260506043112 55 248 0.9 2.6 0.00 0.31 0.00 81 1016.2
20260506040112 55 248 2.6 6.1 0.00 0.31 0.00 81 1015.8
20260506033112 56 248 4.3 7.8 0.00 0.31 0.00 78 1015.2
20260506030130 56 248 5.2 8.7 0.00 0.31 0.00 74 1014.8
20260506023110 58 248 6.1 10.4 0.00 0.31 0.00 70 1014.4
20260506020112 59 248 7.8 13.0 0.00 0.31 0.00 70 1014.2
20260506013112 59 248 9.6 15.6 0.00 0.31 0.00 71 1013.9
20260506010112 60 248 9.6 16.5 0.00 0.31 0.00 65 1013.8
20260506003111 61 248 10.4 17.4 0.00 0.31 0.00 66 1013.7
20260506000132 61 270 10.4 15.6 0.00 0.31 0.31 66 1013.6
20260505233111 61 248 11.3 20.0 0.00 0.31 0.31 67 1013.6
20260505230111 61 248 11.3 19.1 0.00 0.31 0.31 66 1013.7
20260505223112 61 270 11.3 20.9 0.00 0.31 0.31 65 1014.0
20260505220112 62 248 10.4 19.1 0.00 0.31 0.31 65 1014.0
20260505210111 61 270 8.7 14.8 0.00 0.31 0.31 65 1014.5
20260505203111 61 248 9.6 17.4 0.00 0.31 0.31 68 1014.8
20260505200110 60 248 9.6 16.5 0.00 0.31 0.31 68 1014.9
20260505193111 60 248 8.7 14.8 0.00 0.31 0.31 70 1015.1
20260505190111 59 270 7.0 15.6 0.00 0.31 0.31 73 1015.2
20260505183111 58 270 7.8 14.8 0.00 0.31 0.31 79 1015.2
20260505180111 57 248 7.8 15.6 0.00 0.31 0.31 82 1015.0
20260505173110 57 270 6.1 13.0 0.00 0.31 0.31 83 1014.4
20260505170111 57 293 1.7 6.1 0.00 0.31 0.31 93 1014.4
20260505163110 54 0.0 2.6 0.00 0.31 0.31 95 1014.4
20260505160132 53 248 0.9 3.5 0.00 0.31 0.31 95 1014.0
20260505153131 52 293 2.6 7.8 0.01 0.31 0.31 95 1014.0
20260505150110 52 270 7.8 16.5 0.05 0.31 0.31 95 1013.9
20260505140111 53 270 2.6 6.1 0.00 0.26 0.26 95 1013.2
20260505130110 53 248 3.5 7.0 0.11 0.26 0.26 95 1012.7